Location: De Har
(53.3413°N, 6.6858°E)
Time: 18:50:16
(UTC+00:00)

Gbstr 26 Del rocket - Pass Details

Date: 22 April 2026
Orbit: 490 x 1216 km, 51.8° (Epoch: 9 May)

Event Time Altitude Azimuth Distance (km) Brightness Sun altitude
Exits shadow 01:37:22 35° 148° (SSE) 813 3.4 -19.2°
Drops below altitude 10° 01:39:49 10° 124° (ESE) 1,678 5.3 -19.0°
Sets 01:41:59 0° 118° (ESE) 2,569 6.3 -18.9°
